When you browse on this site, cookies collect data to enhance your experience and personalize the content and advertising you see.
Visit our Privacy Policy to learn more. By continuing to use the site, you agree to this use of cookies and data.
  • în România
  • Lista ţărilor
  • Pe 7 zile
  • Temperatura apei
  • Hartă satelitară
  • Meteo pe hartă
  • Widget-uri
  • user-avatar
    Intrare

    Meteo pe oră la Cochabamba

    Astăzi, 19 Iunie, Miercuri

    Timp Temperatura Precipitaţii Vânt Presiune Umiditate
    00:00 +13°C° 0 mm 0 m/s 555 mmHg 57%
    01:00 +13°C° 0 mm 0 m/s 555 mmHg 57%
    02:00 +12°C° 0 mm 0 m/s 554 mmHg 59%
    03:00 +12°C° 0 mm 0 m/s 554 mmHg 59%
    04:00 +11°C° 0 mm 0 m/s 554 mmHg 59%
    05:00 +11°C° 0 mm 0 m/s 553 mmHg 59%
    06:00 +12°C° 0 mm 0 m/s 555 mmHg 56%
    07:00 +14°C° 0 mm 0 m/s 556 mmHg 54%
    08:00 +16°C° 0 mm 0 m/s 558 mmHg 54%
    09:00 +19°C° 0 mm 1 m/s 559 mmHg 49%
    10:00 +21°C° 0 mm 1 m/s 560 mmHg 44%
    11:00 +22°C° 0 mm 1 m/s 560 mmHg 39%
    12:00 +22°C° 0 mm 1 m/s 560 mmHg 39%
    13:00 +23°C° 0 mm 2 m/s 560 mmHg 38%
    14:00 +24°C° 0 mm 2 m/s 560 mmHg 38%
    15:00 +23°C° 0 mm 2 m/s 559 mmHg 43%
    16:00 +21°C° 0 mm 2 m/s 558 mmHg 48%
    17:00 +20°C° 0 mm 3 m/s 558 mmHg 52%
    18:00 +19°C° 0 mm 2 m/s 557 mmHg 59%
    19:00 +17°C° 0 mm 2 m/s 557 mmHg 65%
    20:00 +15°C° 0 mm 2 m/s 557 mmHg 71%
    21:00 +15°C° 0 mm 1 m/s 557 mmHg 73%
    22:00 +14°C° 0 mm 1 m/s 557 mmHg 75%
    23:00 +14°C° 0 mm 1 m/s 557 mmHg 77%

    Mâine, 20 Iunie, Joi

    Timp Temperatura Precipitaţii Vânt Presiune Umiditate
    00:00 +13°C° 0 mm 1 m/s 556 mmHg 79%
    01:00 +13°C° 0 mm 1 m/s 556 mmHg 80%
    02:00 +12°C° 0 mm 1 m/s 556 mmHg 82%
    03:00 +12°C° 0 mm 1 m/s 555 mmHg 83%
    04:00 +10°C° 0 mm 0 m/s 555 mmHg 83%
    05:00 +10°C° 0 mm 0 m/s 555 mmHg 84%
    06:00 +11°C° 0 mm 0 m/s 556 mmHg 80%
    07:00 +12°C° 0 mm 0 m/s 557 mmHg 77%
    08:00 +13°C° 0 mm 0 m/s 558 mmHg 73%
    09:00 +15°C° 0 mm 1 m/s 559 mmHg 67%
    10:00 +18°C° 0 mm 1 m/s 560 mmHg 60%
    11:00 +19°C° 0 mm 1 m/s 560 mmHg 54%
    12:00 +20°C° 0 mm 1 m/s 560 mmHg 51%
    13:00 +21°C° 0 mm 1 m/s 560 mmHg 49%
    14:00 +21°C° 0 mm 2 m/s 560 mmHg 46%
    15:00 +20°C° 0 mm 2 m/s 559 mmHg 46%
    16:00 +20°C° 0 mm 2 m/s 559 mmHg 46%
    17:00 +20°C° 0 mm 2 m/s 559 mmHg 46%
    18:00 +19°C° 0 mm 1 m/s 558 mmHg 52%
    19:00 +16°C° 0 mm 1 m/s 557 mmHg 59%
    20:00 +15°C° 0 mm 1 m/s 557 mmHg 66%
    21:00 +14°C° 0 mm 1 m/s 557 mmHg 67%
    22:00 +14°C° 0 mm 1 m/s 557 mmHg 69%
    23:00 +12°C° 0 mm 0 m/s 557 mmHg 71%

    Poimâine, 21 Iunie, Vineri

    Timp Temperatura Precipitaţii Vânt Presiune Umiditate
    00:00 +12°C° 0 mm 0 m/s 556 mmHg 72%
    01:00 +11°C° 0 mm 0 m/s 556 mmHg 74%
    02:00 +10°C° 0 mm 0 m/s 555 mmHg 76%
    03:00 +10°C° 0 mm 0 m/s 555 mmHg 76%
    04:00 +10°C° 0 mm 0 m/s 555 mmHg 76%
    05:00 +9°C° 0 mm 0 m/s 554 mmHg 77%
    06:00 +10°C° 0 mm 0 m/s 556 mmHg 71%
    07:00 +12°C° 0 mm 0 m/s 557 mmHg 66%
    08:00 +13°C° 0 mm 0 m/s 558 mmHg 60%
    09:00 +16°C° 0 mm 1 m/s 559 mmHg 52%
    10:00 +18°C° 0 mm 1 m/s 560 mmHg 45%
    11:00 +20°C° 0 mm 1 m/s 561 mmHg 37%
    12:00 +21°C° 0 mm 1 m/s 560 mmHg 35%
    13:00 +22°C° 0 mm 1 m/s 560 mmHg 32%
    14:00 +23°C° 0 mm 1 m/s 560 mmHg 30%
    15:00 +22°C° 0 mm 1 m/s 560 mmHg 31%
    16:00 +22°C° 0 mm 1 m/s 559 mmHg 33%
    17:00 +22°C° 0 mm 1 m/s 559 mmHg 34%
    18:00 +20°C° 0 mm 1 m/s 558 mmHg 38%
    19:00 +16°C° 0 mm 1 m/s 557 mmHg 42%
    20:00 +14°C° 0 mm 1 m/s 556 mmHg 45%
    21:00 +14°C° 0 mm 1 m/s 556 mmHg 46%
    22:00 +12°C° 0 mm 0 m/s 556 mmHg 47%
    23:00 +11°C° 0 mm 0 m/s 556 mmHg 48%

    22 Iunie, Sâmbătă

    Timp Temperatura Precipitaţii Vânt Presiune Umiditate
    00:00 +11°C° 0 mm 0 m/s 556 mmHg 49%
    01:00 +10°C° 0 mm 0 m/s 555 mmHg 50%
    02:00 +10°C° 0 mm 0 m/s 555 mmHg 50%
    03:00 +10°C° 0 mm 0 m/s 555 mmHg 52%
    04:00 +9°C° 0 mm 0 m/s 554 mmHg 53%
    05:00 +9°C° 0 mm 0 m/s 554 mmHg 55%
    06:00 +10°C° 0 mm 0 m/s 555 mmHg 52%
    07:00 +12°C° 0 mm 0 m/s 557 mmHg 50%
    08:00 +13°C° 0 mm 0 m/s 558 mmHg 48%
    09:00 +15°C° 0 mm 0 m/s 559 mmHg 42%
    10:00 +19°C° 0 mm 1 m/s 560 mmHg 37%
    11:00 +20°C° 0 mm 1 m/s 561 mmHg 31%
    12:00 +21°C° 0 mm 1 m/s 560 mmHg 32%
    13:00 +21°C° 0 mm 1 m/s 560 mmHg 32%
    14:00 +22°C° 0 mm 1 m/s 559 mmHg 33%
    15:00 +22°C° 0 mm 1 m/s 559 mmHg 34%
    16:00 +21°C° 0 mm 1 m/s 559 mmHg 35%
    17:00 +21°C° 0 mm 1 m/s 558 mmHg 36%
    18:00 +19°C° 0 mm 1 m/s 558 mmHg 42%
    19:00 +16°C° 0 mm 1 m/s 557 mmHg 49%
    20:00 +14°C° 0 mm 1 m/s 556 mmHg 55%
    21:00 +13°C° 0 mm 1 m/s 556 mmHg 56%
    22:00 +12°C° 0 mm 1 m/s 556 mmHg 57%
    23:00 +11°C° 0 mm 0 m/s 556 mmHg 58%

    23 Iunie, Duminică

    Timp Temperatura Precipitaţii Vânt Presiune Umiditate
    00:00 +10°C° 0 mm 0 m/s 556 mmHg 59%
    01:00 +10°C° 0 mm 0 m/s 555 mmHg 59%
    02:00 +10°C° 0 mm 1 m/s 555 mmHg 60%
    03:00 +9°C° 0 mm 0 m/s 554 mmHg 62%
    04:00 +8°C° 0 mm 0 m/s 554 mmHg 65%
    05:00 +8°C° 0 mm 0 m/s 554 mmHg 67%
    06:00 +9°C° 0 mm 0 m/s 555 mmHg 62%
    07:00 +11°C° 0 mm 0 m/s 556 mmHg 57%
    08:00 +12°C° 0 mm 0 m/s 557 mmHg 53%
    09:00 +15°C° 0 mm 1 m/s 558 mmHg 46%
    10:00 +18°C° 0 mm 1 m/s 559 mmHg 40%
    11:00 +19°C° 0 mm 1 m/s 559 mmHg 34%
    12:00 +20°C° 0 mm 1 m/s 559 mmHg 34%
    13:00 +21°C° 0 mm 1 m/s 559 mmHg 35%
    14:00 +21°C° 0 mm 1 m/s 558 mmHg 35%
    15:00 +21°C° 0 mm 1 m/s 558 mmHg 38%
    16:00 +21°C° 0 mm 1 m/s 557 mmHg 40%
    17:00 +20°C° 0 mm 1 m/s 556 mmHg 42%
    18:00 +18°C° 0 mm 1 m/s 556 mmHg 49%
    19:00 +15°C° 0 mm 1 m/s 555 mmHg 56%
    20:00 +13°C° 0 mm 1 m/s 554 mmHg 62%
    21:00 +13°C° 0 mm 1 m/s 554 mmHg 62%
    22:00 +12°C° 0 mm 1 m/s 553 mmHg 62%
    23:00 +10°C° 0 mm 0 m/s 553 mmHg 61%

    24 Iunie, Luni

    Timp Temperatura Precipitaţii Vânt Presiune Umiditate
    00:00 +11°C° 0 mm 1 m/s 553 mmHg 59%
    01:00 +11°C° 0 mm 1 m/s 552 mmHg 57%
    02:00 +10°C° 0 mm 1 m/s 552 mmHg 55%
    03:00 +10°C° 0 mm 1 m/s 552 mmHg 56%
    04:00 +10°C° 0 mm 1 m/s 551 mmHg 57%
    05:00 +9°C° 0 mm 1 m/s 551 mmHg 58%
    06:00 +11°C° 0 mm 1 m/s 552 mmHg 54%
    07:00 +12°C° 0 mm 1 m/s 553 mmHg 51%
    08:00 +13°C° 0 mm 1 m/s 554 mmHg 48%
    09:00 +15°C° 0 mm 1 m/s 555 mmHg 42%
    10:00 +18°C° 0 mm 1 m/s 556 mmHg 37%
    11:00 +20°C° 0 mm 1 m/s 557 mmHg 31%
    12:00 +20°C° 0 mm 2 m/s 556 mmHg 33%
    13:00 +21°C° 0 mm 2 m/s 556 mmHg 34%
    14:00 +21°C° 0 mm 2 m/s 556 mmHg 36%
    15:00 +21°C° 0 mm 2 m/s 555 mmHg 41%
    16:00 +20°C° 0 mm 3 m/s 554 mmHg 46%
    17:00 +19°C° 0 mm 3 m/s 553 mmHg 51%
    18:00 +17°C° 0 mm 3 m/s 553 mmHg 57%
    19:00 +16°C° 0 mm 3 m/s 552 mmHg 64%
    20:00 +14°C° 0 mm 2 m/s 552 mmHg 70%
    21:00 +13°C° 0 mm 2 m/s 552 mmHg 68%
    22:00 +13°C° 0 mm 2 m/s 552 mmHg 66%
    23:00 +13°C° 0 mm 2 m/s 551 mmHg 64%
    Arată mai mult